STARLINK-3043 (49179 NORAD) Tracking and Keplerian Element Data

This shows tracking and keplerian element data for the satellite.

Feedback or suggestion? Click here.




ElementValue
Catalog49179
NameSTARLINK-3043
Epoch Orbit367
Epoch Day300.58334491
Epoch Year2021
RAAN4.6341
Inclination70.0011
Eccentricity0.0004031
Argument of Perigee290.3525
Mean Anonmoly144.2638
Mean Motion15.69757194
Decay Rate-0.00050805
L11 49179U 21082BB 21300.58334491 -.00050805 00000-0 -42617-3 0 9999
L22 49179 70.0011 4.6341 0004031 290.3525 144.2638 15.69757194 3671

Live tracking and technical data element details for STARLINK-3043 (NORAD 49179). STARLINK-3043 can be tracked NOW for your location showing map with azimuth and elevation plus other details from your city location.

Track the satellite on the map from your city or location and see movement details for azimuth, elevation, latitude, longitude, range, height, and movement on the map or in text.







IsCatalogInMostPopularTable: catalog: 49179, numindb: 4
Update: records affected: 1



GetName: 49179 STARLINK-3043

Hit Count: updated at: Thu, 28 Oct 2021 11:04:22 GMT